Location: Corcelles
(46.1547°N, 4.7234°E)
Time: 09:24:29
(UTC+00:00)

Cosmos 2016 Rocket - Pass Details

Date: 14 July 2020
Orbit: 948 x 999 km, 83.0° (Epoch: 05 August)

Event Time Altitude Azimuth Distance (km) Brightness Sun altitude
Exits shadow 01:53:41 25° 206° (SSW) 1,830 4.8 -16.4°
Maximum altitude 01:57:21 64° 281° (WNW) 1,063 4.1 -16.1°
Drops below altitude 10° 02:03:33 10° 3° (N) 2,729 7.3 -15.5°
Sets 02:06:08 0° 7° (N) 3,689 8.2 -15.3°
